Powrót do katalogu

STARLINK-32091

AktywnyŁącznośćVLEO
NORAD 59684·PAYLOAD·🇺🇸 United States

Wystrzelony May 8, 2024 z Cape Canaveral Space Force Station

Loading…

Następne Przeloty (najbliższe 24 godziny)

TLE

ŚwieżeSource: CelesTrak SupGP

Epoka: Sep 15, 2026, 03:02 UTC

1 59684C 24086C   26258.12687500 -.00029587  00000+0 -10715-2 0  2580
2 59684  43.0002  62.5575 0001508 268.8098 348.7514 15.27597928    16

Śledź STARLINK-32091 w czasie rzeczywistym z AllMySat

Download on the App Store